WetterOnline ( https://www.wetteronline.de )

Wetter aktuell Teublitz

Aktuelles Wetter: Regensburg/Oberhub (371m)

6-stündlich | Neueste Meldungen
Ortszeit Temperatur Wetter
Mo, 27.05. 8:00 13.2° C leicht bewölkt
Mo, 27.05. 2:00 11.2° C wolkenlos
So, 26.05. 20:00 21.7° C fast wolkenlos
So, 26.05. 14:00 20.4° C bedeckt
So, 26.05. 8:00 12.8° C bewölkt
So, 26.05. 2:00 11.3° C bedeckt
Sa, 25.05. 20:00 18.0° C wolkig
Sa, 25.05. 14:00 18.9° C bewölkt
Ortszeit Temperatur Wetter
Mo, 27.05. 10:00 18.9° C leicht bewölkt
Mo, 27.05. 9:40 18.8° C leicht bewölkt
Mo, 27.05. 9:30 18.5° C wolkenlos
Mo, 27.05. 9:20 18.5° C wolkenlos
Mo, 27.05. 9:10 18.4° C leicht bewölkt
Mo, 27.05. 9:00 16.7° C wolkig
Mo, 27.05. 8:50 16.7° C wolkig
Mo, 27.05. 8:30 15.5° C wolkig
Mo, 27.05. 8:00 13.2° C leicht bewölkt
Mo, 27.05. 7:30 11.5° C wolkenlos
Mo, 27.05. 7:00 10.2° C wolkenlos
Ortszeit Relative Feuchte Sichtweite
Mo, 27.05. 8:00 80% 35 km
Mo, 27.05. 2:00 89% 40 km
So, 26.05. 20:00 44% >70 km
So, 26.05. 14:00 46% 60 km
So, 26.05. 8:00 82% 35 km
So, 26.05. 2:00 91% 30 km
Sa, 25.05. 20:00 57% 55 km
Sa, 25.05. 14:00 55% 55 km
Ortszeit Relative Feuchte Sichtweite
Mo, 27.05. 10:00 48% 45 km
Mo, 27.05. 9:40 45% -
Mo, 27.05. 9:30 53% 60 km
Mo, 27.05. 9:20 53% -
Mo, 27.05. 9:10 54% -
Mo, 27.05. 9:00 58% 50 km
Mo, 27.05. 8:50 58% -
Mo, 27.05. 8:30 71% 40 km
Mo, 27.05. 8:00 80% 35 km
Mo, 27.05. 7:30 88% 40 km
Mo, 27.05. 7:00 92% 45 km
Ortszeit Niederschlagsmenge Niederschlagsart
Mo, 27.05. 8:00 0.0 l/m2 in 12 Std. -
Mo, 27.05. 2:00 0.0 l/m2 in 6 Std. -
So, 26.05. 20:00 0.0 l/m2 in 12 Std. -
So, 26.05. 14:00 0.0 l/m2 in 6 Std. -
So, 26.05. 8:00 0.0 l/m2 in 12 Std. -
So, 26.05. 2:00 0.0 l/m2 in 6 Std. -
Sa, 25.05. 20:00 0.3 l/m2 in 12 Std. Regen
Sa, 25.05. 14:00 0.1 l/m2 in 6 Std. Regen
Ortszeit Niederschlagsmenge Niederschlagsart
Mo, 27.05. 10:00 0.0 l/m2 in 1 Std. -
Mo, 27.05. 9:40 keine Meldung -
Mo, 27.05. 9:30 0.0 l/m2 in 1 Std. -
Mo, 27.05. 9:20 keine Meldung -
Mo, 27.05. 9:10 keine Meldung -
Mo, 27.05. 9:00 0.0 l/m2 in 1 Std. -
Mo, 27.05. 8:50 keine Meldung -
Mo, 27.05. 8:30 0.0 l/m2 in 1 Std. -
Mo, 27.05. 8:00 0.0 l/m2 in 1 Std. -
Mo, 27.05. 7:30 0.0 l/m2 in 1 Std. -
Mo, 27.05. 7:00 0.0 l/m2 in 1 Std. -
Ortszeit Stärke Spitze Richtung
km/h Bft. km/h Grad Sektor
Mo, 27.05. 8:00 4 1 11 150° SO
Mo, 27.05. 2:00 4 1 14 340° N
So, 26.05. 20:00 7 2 25 260° W
So, 26.05. 14:00 11 2 18 220° SW
So, 26.05. 8:00 2 1 7 330° NW
So, 26.05. 2:00 6 1 19 350° N
Sa, 25.05. 20:00 13 3 31 330° NW
Sa, 25.05. 14:00 11 2 22 360° N
Ortszeit Stärke Spitze Richtung
km/h Bft. km/h Grad Sektor
Mo, 27.05. 10:00 6 1 11 210° SW
Mo, 27.05. 9:40 2 1 - 340° N
Mo, 27.05. 9:30 2 1 6 240° SW
Mo, 27.05. 9:20 2 1 - 240° SW
Mo, 27.05. 9:10 4 1 - 230° SW
Mo, 27.05. 9:00 4 1 7 190° S
Mo, 27.05. 8:50 4 1 - 190° S
Mo, 27.05. 8:30 4 1 7 210° SW
Mo, 27.05. 8:00 4 1 7 150° SO
Mo, 27.05. 7:30 0 0 4 - -
Mo, 27.05. 7:00 0 0 4 - -
Ortszeit Untergrenze Bedeckung Gattung
total tief tief mittel hoch
Mo, 27.05. 8:00 9000 m 4/8 0/8 - - -
Mo, 27.05. 2:00 - 0/8 0/8 - - -
So, 26.05. 20:00 10500 m 1/8 0/8 - - -
So, 26.05. 14:00 1800 m 8/8 8/8 - - -
So, 26.05. 8:00 2700 m 7/8 7/8 - - -
So, 26.05. 2:00 2400 m 8/8 8/8 - - -
Sa, 25.05. 20:00 3000 m 5/8 5/8 - - -
Sa, 25.05. 14:00 1500 m 8/8 7/8 - - -
Ortszeit Bedeckungsgrad in Achtel und Wolkenuntergrenze
Mo, 27.05. 10:00 5(10500m)
Mo, 27.05. 9:40 3(10500m)
Mo, 27.05. 9:30 keine Wolken
Mo, 27.05. 9:20 keine Wolken
Mo, 27.05. 9:10 1(1800m) 2(9000m)
Mo, 27.05. 9:00 5(1500m) 7(9000m)
Mo, 27.05. 8:50 5(1500m) 7(9000m)
Mo, 27.05. 8:30 1(1470m) 8(9000m)
Mo, 27.05. 8:00 4(9000m)
Mo, 27.05. 7:30 keine Wolken
Mo, 27.05. 7:00 keine Wolken
Ortszeit Luftdruck NN (hPa) Tendenz (hPa in 3 Std.)
Mo, 27.05. 8:00 1012 + 0,2
Mo, 27.05. 2:00 1013 - 0,4
So, 26.05. 20:00 1012 - 1,0
So, 26.05. 14:00 1015 - 1,0
So, 26.05. 8:00 1017 + 0,6
So, 26.05. 2:00 1017 + 0,6
Sa, 25.05. 20:00 1014 + 0,8
Sa, 25.05. 14:00 1014 - 0,7
Ortszeit Luftdruck NN (hPa) Tendenz (hPa in 3 Std.)
Mo, 27.05. 10:00 1011 - 0,2
Mo, 27.05. 9:40 1011 keine Meldung
Mo, 27.05. 9:30 1011 - 0,1
Mo, 27.05. 9:20 1011 keine Meldung
Mo, 27.05. 9:10 1011 keine Meldung
Mo, 27.05. 9:00 1012 + 0,1
Mo, 27.05. 8:50 1012 keine Meldung
Mo, 27.05. 8:30 1012 + 0,2
Mo, 27.05. 8:00 1012 + 0,2
Mo, 27.05. 7:30 1013 + 0,1
Mo, 27.05. 7:00 1013 - 0,2
Ortszeit Schneehöhe (cm)
Mo, 27.05. 8:00 -
Mo, 27.05. 2:00 -
So, 26.05. 20:00 -
So, 26.05. 14:00 -
So, 26.05. 8:00 -
So, 26.05. 2:00 -
Sa, 25.05. 20:00 -
Sa, 25.05. 14:00 -
Ortszeit Schneehöhe (cm)
Mo, 27.05. 10:00 -
Mo, 27.05. 9:40 -
Mo, 27.05. 9:30 -
Mo, 27.05. 9:20 -
Mo, 27.05. 9:10 -
Mo, 27.05. 9:00 -
Mo, 27.05. 8:50 -
Mo, 27.05. 8:30 -
Mo, 27.05. 8:00 -
Mo, 27.05. 7:30 -
Mo, 27.05. 7:00 -
Link zu dieser Seite / Seite empfehlen

Das Wetter in ...